Theta_e
313 315 317 319 321 323 322 321 320 318 314 312 314 315 316 317 317 318 318 315 313 313 313 312 311 310 308 306 304 303 307 312 314 314 314 314 313 312 312 312 312 310 308 309 311 311 311 311 310 310 309 309 308 307 308 309 310 311 311 311 312 312 311
311 312 315 319 321 321 319 317 319 321 319 317 317 316 316 315 315 316 314 311 311 313 313 311 308 306 305 303 301 303 309 314 314 314 314 314 313 312 312 312 312 310 308 310 311 310 311 311 310 310 309 310 308 307 308 309 309 310 311 311 312 312 311
308 309 312 317 319 318 318 317 318 321 321 321 319 318 317 315 314 312 311 310 311 312 312 310 307 304 302 302 301 305 311 314 314 314 314 314 313 312 312 312 312 311 309 309 310 310 310 310 310 310 310 310 309 308 308 308 309 310 311 312 312 312 311
306 308 311 315 317 319 321 320 319 319 320 319 318 317 316 314 313 312 311 312 312 312 312 309 306 304 302 301 301 305 311 313 314 314 314 314 312 312 312 312 313 311 309 309 310 309 310 310 310 311 310 310 310 309 308 308 309 310 311 312 312 312 311
305 306 309 312 315 317 318 318 316 316 316 316 315 314 313 312 311 310 310 311 312 311 310 308 306 304 302 301 301 305 310 312 313 314 314 314 313 313 312 313 312 310 308 309 309 309 310 310 311 311 310 310 310 309 308 308 309 310 311 312 312 312 311
305 306 306 308 311 313 314 314 313 312 313 313 312 311 310 310 309 309 310 310 311 311 310 308 306 304 303 301 301 303 306 310 312 314 314 315 314 313 313 313 311 308 308 309 309 309 310 310 311 311 310 310 310 309 308 308 309 310 311 312 312 312 310
305 305 306 306 308 311 311 312 311 311 311 310 309 308 309 309 310 310 309 309 310 311 311 309 306 306 305 302 300 301 304 308 312 314 315 315 314 312 312 312 308 307 308 309 309 310 310 310 311 311 311 310 310 309 309 308 309 310 311 312 312 311 310
305 305 306 306 307 308 308 309 310 310 309 308 308 308 308 308 309 309 309 309 310 310 310 309 308 308 307 305 302 300 304 310 313 315 315 314 312 311 311 309 305 307 309 309 309 309 310 311 311 311 311 310 310 310 309 308 309 310 311 312 312 311 310
305 305 305 305 305 305 305 306 307 307 308 308 308 308 308 309 309 311 310 310 310 310 311 311 311 311 310 310 307 303 305 310 313 314 314 312 310 311 311 306 304 308 310 309 309 309 310 311 311 311 310 310 310 310 309 308 309 311 311 312 312 311 310
305 305 305 305 305 305 305 305 305 305 306 307 309 309 310 311 312 313 312 311 310 310 312 313 313 313 313 313 312 306 306 310 312 314 314 311 310 311 310 305 305 309 309 309 309 309 311 311 310 311 310 310 310 310 310 309 310 311 311 312 312 310 310
307 305 305 305 305 305 305 304 304 304 305 306 307 308 309 311 313 314 312 311 310 310 312 313 315 315 315 314 314 310 308 311 314 315 315 312 310 311 310 305 306 310 309 308 309 310 311 311 310 310 310 310 310 309 310 310 310 311 312 312 311 310 310
314 311 309 307 306 305 305 304 304 304 304 305 305 307 308 310 312 312 312 311 311 311 313 315 317 317 316 315 315 313 309 310 313 315 315 312 310 310 310 306 306 309 310 309 309 310 310 310 310 310 310 310 310 309 309 310 311 311 312 312 311 310 310
324 322 319 317 315 312 309 306 305 304 304 305 306 307 308 310 311 312 312 312 311 311 313 316 318 317 315 314 315 314 310 308 311 315 314 312 310 309 310 309 307 307 309 309 309 310 310 309 309 310 310 310 309 309 309 310 311 311 312 312 311 311 310
330 330 328 325 324 321 317 312 308 306 305 305 306 307 307 309 311 312 313 313 311 311 313 316 318 318 316 314 314 314 312 308 309 312 313 312 311 310 310 311 308 304 306 308 309 309 309 309 309 309 310 309 309 309 308 309 311 311 312 312 311 311 310
333 333 332 330 328 325 323 320 315 312 310 307 306 306 307 308 309 310 311 311 311 312 314 316 318 319 318 315 313 312 312 309 307 309 311 311 311 311 311 311 308 305 305 307 308 309 309 308 308 309 309 309 308 308 308 309 311 312 312 311 311 311 310
334 334 333 332 330 327 326 325 322 320 318 314 311 310 310 309 309 310 310 311 313 313 314 316 317 318 318 316 314 312 311 310 307 307 310 311 311 311 310 309 308 305 305 306 306 306 305 305 306 308 309 308 306 305 308 310 311 312 312 311 310 310 310
334 334 333 333 331 329 329 328 327 326 324 322 318 315 314 313 313 313 313 313 316 316 316 317 317 318 318 317 315 313 311 310 308 307 308 308 309 310 308 307 308 307 305 306 305 303 302 302 304 306 306 306 306 306 309 312 312 312 312 311 311 311 310
334 334 334 334 333 333 332 332 331 330 329 327 325 321 320 320 319 318 318 318 318 318 318 317 318 318 318 318 316 314 312 312 310 307 306 306 307 308 306 304 308 309 306 306 305 302 301 302 304 304 305 307 309 310 311 312 312 312 312 310 310 311 311
335 335 335 335 335 335 335 334 333 333 332 330 329 328 327 327 326 324 323 323 322 321 320 319 319 319 318 318 318 316 314 314 313 308 305 306 308 307 304 303 308 310 307 306 306 302 302 304 305 305 306 309 311 312 312 312 312 312 311 310 311 311 310
335 335 335 336 336 335 335 335 334 333 332 331 331 331 330 329 329 327 326 325 324 322 321 320 320 320 319 319 318 317 316 315 314 309 305 306 307 306 304 306 309 309 306 306 305 302 303 306 307 307 308 310 311 312 312 312 312 312 311 311 311 311 310
336 336 336 336 335 334 333 333 332 332 332 331 330 329 328 329 329 328 327 325 324 323 322 322 321 321 321 320 318 317 315 315 314 310 306 305 305 304 306 308 309 307 306 305 303 302 305 307 307 308 309 311 311 312 312 312 312 311 311 311 311 311 310
335 335 335 333 332 331 331 330 330 330 330 329 329 329 329 329 329 328 327 325 324 324 323 323 323 322 322 320 318 317 315 314 315 312 306 304 303 303 305 308 308 306 306 304 302 303 306 308 307 308 309 310 311 311 311 312 312 311 311 310 311 311 310
334 333 332 332 331 330 330 330 330 330 329 329 329 329 329 328 328 327 327 326 325 325 324 324 323 323 322 320 318 316 315 315 315 311 307 305 304 302 304 307 307 306 306 304 303 305 307 307 308 308 308 309 310 310 310 311 311 311 310 310 310 310 310
334 333 332 331 330 331 331 331 330 330 329 329 328 327 327 326 326 325 325 325 325 325 325 324 324 323 322 321 319 317 316 316 315 311 308 307 305 302 303 306 308 307 306 305 305 306 307 307 308 308 308 308 308 309 310 310 310 311 310 310 310 310 310
330 328 327 326 326 328 329 329 328 328 327 327 326 325 325 324 324 324 324 324 323 324 324 324 324 323 323 321 319 317 316 317 315 312 309 307 304 301 302 305 307 306 305 305 306 307 306 307 308 309 309 309 308 309 309 309 310 311 310 310 311 310 310
325 323 322 322 323 325 326 326 326 325 324 324 323 323 323 323 323 323 323 323 323 323 323 323 323 323 322 320 319 318 317 317 315 312 310 308 304 301 301 304 305 305 305 305 306 307 307 307 308 309 309 309 308 308 309 308 309 310 310 310 310 310 310
322 321 320 319 320 321 321 321 321 320 319 317 316 318 319 320 321 322 322 322 322 322 322 322 322 322 322 321 321 319 317 317 315 312 310 309 305 301 301 302 303 304 306 306 306 307 307 307 307 308 309 309 308 308 309 308 309 309 310 310 310 310 310
318 317 317 318 318 318 317 318 318 317 315 311 311 314 316 318 319 320 320 321 321 321 320 320 321 321 321 321 321 320 317 317 316 313 310 309 305 301 300 301 303 305 306 305 305 307 308 307 307 308 308 309 308 308 309 309 309 309 310 310 310 310 310
314 316 317 316 316 316 316 317 318 317 314 311 313 315 316 317 317 317 317 318 319 320 319 320 320 320 320 321 321 319 317 316 316 313 310 308 304 300 300 301 303 306 306 305 304 307 308 307 306 308 308 308 308 308 308 309 309 309 310 309 309 309 310
315 316 315 315 316 317 317 317 317 316 314 313 314 315 315 316 316 317 316 316 317 319 319 319 319 319 320 320 321 319 317 316 317 314 310 307 303 300 300 301 303 306 308 305 304 307 308 306 305 308 309 308 309 309 309 308 308 309 309 309 309 309 309
315 314 315 316 317 317 316 316 315 314 313 312 313 313 313 314 316 317 316 316 317 318 318 319 319 318 319 320 320 319 317 316 317 315 311 307 302 299 299 299 301 304 304 303 304 306 306 304 305 308 309 308 309 309 309 309 308 308 308 309 309 309 309
313 314 315 316 316 315 314 313 313 312 311 311 311 311 312 312 314 315 315 315 316 317 318 320 319 317 317 318 318 319 318 316 316 316 313 309 303 298 297 298 300 302 303 303 305 306 304 303 306 308 308 308 309 309 309 309 309 308 308 309 309 309 309
313 314 314 314 313 312 311 311 311 311 311 311 311 311 311 311 312 313 313 314 315 316 317 318 318 316 315 315 316 318 318 317 316 316 315 311 304 299 297 298 301 304 304 304 305 306 302 301 305 308 308 308 309 308 308 308 308 309 309 309 309 309 309
313 312 312 311 311 310 311 311 311 311 311 312 312 312 312 311 312 312 312 312 313 314 314 313 315 316 313 312 313 314 315 317 316 316 315 311 305 299 299 300 302 305 305 304 303 303 300 299 304 308 308 308 309 308 308 308 308 309 310 309 310 309 309
311 310 310 310 310 310 311 311 311 312 312 312 312 312 312 312 312 312 312 312 312 312 312 311 313 315 313 310 311 311 312 314 315 315 313 309 304 300 300 302 304 305 306 304 301 300 298 299 304 307 308 308 309 308 308 309 309 309 310 310 310 310 309
309 309 310 310 310 311 311 311 311 311 311 311 311 311 311 311 311 311 312 312 311 311 311 311 313 314 312 311 311 310 310 313 315 314 312 309 304 301 302 304 306 306 306 303 301 300 299 299 303 307 308 308 308 308 308 309 309 309 310 310 309 309 309
308 309 309 309 308 309 309 309 309 309 309 309 309 310 309 309 310 310 310 311 310 310 311 311 312 313 312 311 311 310 310 313 314 313 312 308 304 302 304 306 307 306 305 302 302 303 302 300 301 305 307 307 308 308 308 309 309 309 309 309 309 309 309
Wind_Speed
13 13 13 11 9 9 10 11 10 11 11 10 11 12 12 11 12 14 17 18 16 15 15 16 17 18 18 17 16 14 11 9 10 12 14 15 15 15 14 13 15 16 10 6 10 13 17 22 25 26 25 25 22 18 18 20 20 20 24 30 32 30 29
10 10 11 10 10 10 10 8 7 7 8 9 10 11 12 13 14 16 17 17 16 15 16 17 17 18 17 16 14 12 9 8 9 11 12 15 16 15 15 15 16 17 10 5 8 11 13 17 21 26 28 28 25 20 18 20 21 20 23 29 30 29 28
9 9 9 10 10 10 9 8 8 8 8 9 11 11 12 14 14 15 16 16 15 15 15 16 16 16 15 14 12 10 8 9 9 10 12 15 15 13 14 14 17 19 13 7 10 12 13 15 17 22 25 27 27 24 20 21 22 20 22 27 27 27 28
8 8 8 8 8 8 9 10 11 11 10 11 12 12 13 14 14 15 16 15 14 14 15 16 16 15 14 13 12 9 9 10 10 10 11 14 14 13 13 14 17 19 13 8 11 12 13 14 16 19 22 23 24 23 20 21 23 21 22 26 25 25 27
8 9 9 8 7 8 10 11 11 12 13 13 14 15 15 16 16 16 16 16 15 16 17 17 17 15 13 13 11 10 10 10 11 11 11 13 14 14 13 13 18 17 9 7 11 12 12 12 14 17 21 22 22 22 20 21 23 22 24 25 22 24 27
8 9 9 9 9 9 11 11 12 13 14 15 16 16 17 18 18 17 17 17 17 18 18 18 17 14 13 12 11 11 10 10 11 10 10 13 15 16 13 14 18 14 6 6 10 11 11 11 12 15 19 20 20 21 21 21 23 24 25 24 21 23 26
8 9 10 10 10 11 12 13 14 14 15 16 16 17 18 18 17 17 17 17 18 19 19 18 17 14 12 12 11 11 9 8 9 9 10 13 16 15 13 16 16 9 4 6 8 10 11 12 12 14 18 20 20 21 21 21 22 24 26 24 21 23 26
9 9 9 9 10 11 13 14 15 15 15 16 16 17 17 17 17 16 17 17 18 18 18 17 16 13 11 11 11 11 9 7 8 8 10 13 15 14 14 17 12 5 4 6 7 9 10 11 12 14 16 18 21 22 22 22 22 23 26 24 22 22 25
9 9 9 9 10 11 12 14 14 15 15 16 16 16 16 16 16 16 16 16 17 16 15 15 13 11 10 11 12 11 8 7 8 10 11 13 14 13 15 15 8 4 5 6 7 9 8 9 11 13 14 14 18 21 21 23 23 23 24 24 22 22 23
8 9 10 10 11 12 12 13 14 15 16 16 16 16 15 15 15 15 15 15 16 16 14 14 13 12 12 12 13 13 9 8 9 11 13 14 13 13 16 13 6 5 6 6 7 8 7 9 10 12 12 11 14 16 18 21 21 22 23 23 22 21 22
8 8 10 11 11 13 14 14 15 15 15 16 17 17 16 17 16 16 16 16 16 16 14 13 13 13 13 13 14 13 11 10 10 11 13 14 13 14 16 12 6 6 5 6 7 7 7 9 10 11 10 9 10 12 14 18 18 20 21 20 19 18 20
7 8 9 10 11 13 14 14 15 15 15 16 16 17 18 18 18 18 18 17 17 16 15 13 13 13 13 14 13 13 12 11 12 12 14 14 13 14 15 12 7 7 6 6 6 6 9 10 11 11 9 7 7 9 11 13 16 18 18 18 17 15 17
8 9 10 11 12 13 13 14 15 15 16 16 17 17 18 18 18 19 18 18 18 16 15 14 13 13 13 14 14 14 14 12 12 13 13 14 13 12 14 13 10 9 9 8 7 8 10 11 12 11 9 7 6 8 10 11 14 16 14 14 14 12 15
10 11 12 13 14 14 14 14 15 15 16 16 17 18 19 19 20 20 19 19 18 16 16 15 13 14 15 14 14 16 16 13 12 13 12 12 11 11 12 14 13 11 10 11 10 10 11 12 13 11 9 8 7 8 11 11 13 14 13 13 11 10 13
11 13 14 15 15 15 15 15 14 15 16 16 17 17 18 19 19 20 19 19 17 17 16 15 14 16 18 17 15 16 16 14 13 13 12 11 10 10 11 13 14 11 10 11 11 12 13 13 13 11 10 11 10 8 10 11 11 11 12 12 10 9 12
12 14 16 16 16 15 15 16 15 16 16 16 16 16 16 17 17 18 18 17 17 17 16 15 15 17 19 19 17 15 15 15 14 13 13 12 10 10 12 13 13 11 10 11 13 15 15 13 11 10 11 13 11 7 7 8 9 9 9 10 9 9 12
14 16 17 17 16 15 15 16 16 17 17 16 16 16 16 17 17 18 17 17 17 17 17 16 16 17 18 19 18 16 15 15 14 13 14 14 12 13 14 11 10 11 12 13 15 15 12 10 8 8 11 12 8 4 4 6 6 6 7 8 8 9 10
14 16 17 16 16 15 16 16 15 16 16 16 16 16 16 17 17 17 17 16 16 17 17 16 18 19 19 19 20 18 16 16 15 13 13 14 13 14 12 7 7 12 13 13 17 15 9 7 7 7 9 8 4 3 3 4 5 5 6 7 8 7 8
15 16 16 17 18 17 18 19 18 18 18 18 18 17 17 18 17 15 16 16 16 17 16 17 19 21 20 20 21 20 17 17 18 15 12 12 12 13 11 6 6 11 11 11 15 13 6 6 8 8 7 4 3 3 2 3 4 5 6 6 8 8 8
15 16 17 18 19 20 20 21 21 20 20 20 20 20 20 20 19 17 17 17 17 17 17 18 20 22 22 21 21 21 19 18 19 17 13 12 12 12 9 6 5 8 9 10 12 8 3 5 8 8 6 4 3 4 3 3 4 4 5 5 7 8 8
15 17 18 19 19 19 19 19 19 18 18 18 19 18 19 19 20 21 20 18 18 19 19 20 21 23 24 22 20 21 20 17 18 18 15 13 13 12 10 7 5 6 7 9 9 3 1 5 7 8 7 5 4 4 3 4 4 5 5 4 6 8 8
15 16 16 17 17 17 17 17 17 17 17 17 18 19 20 21 22 23 23 22 22 22 21 22 22 25 26 23 20 19 20 18 19 18 14 12 13 14 12 8 5 5 6 7 3 1 2 4 6 8 9 6 4 4 4 4 5 6 5 4 6 7 7
14 14 15 16 17 17 17 17 17 17 18 18 20 20 20 20 21 22 23 23 24 25 23 23 24 25 26 24 20 19 20 20 19 15 13 12 12 14 13 8 5 4 3 3 0 1 1 2 4 6 8 7 5 4 5 4 5 6 5 4 5 6 7
10 11 12 13 14 14 15 15 14 15 15 15 17 17 16 17 18 19 19 20 22 23 23 24 24 24 25 24 22 20 19 19 16 12 11 11 10 12 12 9 7 5 2 3 3 2 3 2 1 4 6 7 6 5 5 4 3 5 5 4 5 6 8
7 8 10 11 12 12 12 12 12 12 12 13 15 16 16 17 17 16 16 17 19 20 21 21 21 22 24 24 23 20 17 15 13 10 9 9 9 10 10 11 10 8 5 4 5 3 3 2 1 3 5 6 7 6 6 4 3 4 5 5 4 6 8
7 9 11 12 13 12 12 12 13 13 14 15 17 18 18 18 16 16 16 16 18 18 19 19 17 19 23 23 21 21 16 11 10 9 9 9 10 10 10 12 12 10 7 5 6 4 3 3 2 1 3 4 6 6 6 5 3 4 5 5 4 6 7
11 14 15 16 16 16 15 16 16 16 17 18 19 18 18 17 16 15 15 15 16 16 18 17 15 16 19 18 19 20 15 7 7 8 9 9 10 10 11 12 12 10 8 7 7 6 5 4 3 3 2 2 4 5 6 5 3 4 5 6 5 6 7
16 17 17 18 18 18 17 17 16 18 20 20 18 15 14 14 14 14 14 14 15 15 16 15 13 14 15 15 18 19 13 6 6 8 8 9 9 10 11 13 12 10 9 9 8 8 7 5 5 4 2 1 3 5 5 4 4 6 6 6 6 7 7
16 16 16 16 16 15 16 16 17 20 22 19 14 12 13 13 13 14 15 15 15 14 14 13 12 12 13 14 17 17 11 6 7 8 8 8 9 10 12 14 12 10 10 10 9 8 7 7 7 6 3 2 2 5 5 3 5 7 6 5 6 7 8
15 14 14 13 13 14 16 17 19 22 21 17 14 14 15 14 13 14 16 16 15 14 12 12 12 12 12 14 17 16 11 7 7 8 9 9 8 10 14 15 13 12 11 11 9 9 8 8 8 7 4 3 3 5 5 4 6 7 6 5 6 7 8
13 12 12 12 12 14 16 19 21 21 19 17 16 16 16 15 13 14 16 16 15 13 11 10 11 12 12 13 16 16 12 9 7 8 10 9 8 11 15 16 14 12 10 10 10 9 8 8 9 8 5 4 5 5 5 5 6 6 6 7 7 7 8
11 11 11 12 14 17 19 21 21 19 17 16 16 15 15 15 13 12 14 15 14 12 11 9 9 9 10 11 14 16 14 12 9 8 11 10 9 12 16 17 14 10 7 7 8 7 6 7 10 9 5 5 6 5 4 5 6 6 6 7 8 9 8
9 11 12 15 17 18 18 16 15 15 14 14 15 15 15 14 13 12 13 12 11 10 10 8 6 7 9 10 12 14 15 13 10 10 11 11 10 12 16 17 14 9 6 6 8 8 7 7 10 10 6 5 6 5 3 2 3 6 8 8 9 9 10
9 12 14 16 15 12 11 11 12 13 14 15 15 16 15 15 15 14 13 12 10 9 9 8 6 6 8 9 10 12 14 15 13 13 13 12 11 12 14 16 13 10 7 7 7 9 9 8 9 9 7 6 7 6 3 1 2 6 11 11 9 9 10
11 13 12 11 9 8 9 12 14 14 15 16 16 17 17 17 16 16 15 13 11 11 11 9 6 6 7 9 10 11 13 14 13 15 14 11 10 11 12 12 11 10 9 8 8 9 11 11 10 9 7 8 8 6 4 3 5 10 13 12 10 10 10
10 8 7 7 8 10 12 15 16 16 17 18 18 18 18 18 17 17 16 15 14 12 11 8 5 5 8 10 11 12 12 11 11 15 15 11 10 10 11 10 11 11 10 9 8 10 12 14 13 11 9 9 8 5 3 3 7 13 15 12 11 11 10
6 6 7 9 12 15 16 18 19 19 19 20 21 21 21 21 21 21 20 20 18 14 10 8 6 6 7 9 10 11 10 8 9 14 16 12 9 11 12 10 11 11 10 8 7 8 11 15 16 13 11 10 8 6 4 2 4 10 14 13 11 10 9
Wind_Direction
244 244 245 249 259 275 286 295 302 305 303 297 291 290 292 299 304 305 302 300 302 307 314 317 315 316 317 318 320 317 314 306 308 325 330 332 335 334 339 342 342 345 339 330 350 351 342 338 344 352 354 360 8 12 12 10 6 359 350 347 350 354 353
242 242 245 254 265 274 285 295 294 301 307 300 298 302 306 307 302 297 295 298 304 307 311 313 312 314 314 317 319 313 306 297 306 325 326 326 328 326 333 336 338 342 337 333 355 356 351 343 345 349 349 353 2 11 12 7 6 2 355 350 349 354 354
250 252 253 255 262 274 293 303 292 292 301 299 303 310 311 308 301 297 298 300 301 304 310 312 313 313 313 316 316 306 301 298 308 323 320 323 325 320 328 330 334 338 333 338 358 358 354 350 347 346 347 349 352 359 5 4 6 4 359 354 351 353 355
257 261 260 259 263 276 293 302 297 294 298 300 304 307 311 312 305 300 301 300 300 306 315 317 316 315 311 314 315 301 293 296 308 318 319 326 323 317 324 327 331 335 328 333 354 356 353 350 347 344 345 347 347 351 358 3 7 6 2 359 354 352 354
260 262 265 271 278 284 291 295 295 296 299 299 300 303 308 309 303 301 304 305 305 310 317 318 317 315 310 312 313 300 289 292 304 313 319 324 320 318 322 323 330 331 319 327 349 354 352 348 347 343 342 344 345 349 355 2 5 6 7 4 358 354 354
265 267 270 277 281 285 291 294 295 297 297 296 298 302 304 303 301 303 305 305 306 310 314 314 312 312 310 311 312 303 294 290 294 304 319 319 318 319 318 322 330 325 303 326 346 350 347 342 342 344 343 340 342 347 354 2 3 3 7 7 3 357 355
271 272 274 279 280 281 286 290 294 296 296 298 299 300 300 300 302 304 304 306 307 309 311 308 309 312 310 311 311 307 300 289 287 302 316 315 317 318 316 324 328 314 293 326 337 340 340 336 337 343 343 338 340 346 353 359 2 2 2 5 7 0 357
276 277 279 282 282 281 282 284 289 292 294 295 296 297 298 299 303 305 307 310 309 308 308 307 310 314 312 316 318 313 304 289 287 302 310 312 319 318 319 327 325 297 293 315 325 333 334 331 332 340 342 339 343 347 349 353 1 4 360 360 6 5 1
283 288 290 290 287 283 281 282 286 288 290 292 292 293 296 299 304 307 309 311 309 308 309 308 312 315 319 331 333 324 308 287 289 303 312 317 320 317 321 326 316 280 297 310 325 331 330 328 328 335 340 341 347 349 348 349 356 1 360 360 5 7 5
293 298 301 301 297 291 288 286 285 286 287 290 293 295 297 301 304 306 308 311 312 312 311 311 316 322 329 338 339 332 319 298 298 308 315 319 317 312 320 325 306 292 310 325 336 328 322 327 327 333 336 339 351 356 351 346 348 356 359 2 7 7 6
299 301 302 303 301 298 297 296 293 291 289 290 294 298 301 303 305 307 309 313 315 312 310 311 316 323 329 330 332 335 327 308 303 306 310 316 314 310 320 325 303 297 320 339 342 326 315 323 327 329 329 333 348 358 353 343 344 353 358 4 12 10 3
306 306 304 303 301 300 301 300 296 296 296 294 295 298 300 302 304 306 309 312 313 311 310 312 312 316 321 320 320 324 324 312 301 298 305 314 316 311 319 328 309 291 312 330 329 315 309 316 324 322 319 327 341 344 344 341 343 353 359 7 17 13 2
316 314 312 310 309 309 309 304 301 302 301 299 298 297 298 299 301 303 306 309 311 310 309 309 306 303 306 311 308 305 313 315 299 293 303 312 316 315 319 328 319 298 298 306 307 308 309 313 318 318 312 317 330 332 335 338 341 350 2 12 19 13 2
324 321 318 315 314 316 315 311 309 306 303 302 300 298 299 300 301 303 304 307 308 306 307 309 300 290 295 302 297 295 309 316 296 289 299 306 312 317 316 321 323 309 293 292 297 306 312 314 314 313 309 309 317 325 329 336 341 349 2 13 20 14 3
326 325 325 322 319 317 315 313 310 306 305 305 302 300 301 301 301 302 301 304 305 300 303 310 297 283 288 295 295 298 309 312 296 291 295 298 305 309 308 317 323 314 297 296 298 303 310 314 312 309 309 312 316 317 322 332 341 348 358 11 23 19 9
322 325 329 329 324 318 314 313 310 308 308 308 303 301 300 299 298 298 296 298 304 298 296 305 300 286 284 291 297 302 305 304 299 294 291 288 289 289 295 313 322 314 308 314 317 314 312 314 314 309 309 316 320 318 320 333 343 351 2 15 29 27 15
320 325 330 331 326 320 315 313 311 311 311 310 308 304 302 301 298 297 296 297 304 301 293 297 301 294 287 289 295 298 301 302 297 291 286 282 278 278 287 307 321 317 318 325 330 327 319 320 325 317 315 321 330 338 339 344 352 359 11 27 38 34 20
318 326 328 327 326 323 320 318 316 318 316 314 312 307 306 307 302 299 301 301 302 302 295 290 294 298 295 288 289 294 301 307 303 293 282 277 272 272 280 292 313 320 322 325 329 330 329 334 337 329 327 336 3 18 3 8 9 6 19 40 52 46 30
317 323 322 321 323 322 320 319 318 318 316 315 316 314 314 317 312 307 307 305 303 302 298 288 287 296 299 290 286 288 294 307 313 301 275 263 263 268 273 270 298 317 317 320 328 330 335 347 344 342 347 13 46 27 25 34 22 21 30 47 61 59 44
317 319 319 319 320 320 320 320 319 317 315 317 321 322 321 321 318 312 307 305 304 301 297 292 288 292 296 293 288 284 282 296 311 302 274 257 262 267 262 245 273 306 307 318 329 328 343 6 360 2 18 59 53 22 30 35 28 38 41 47 65 66 56
316 316 317 317 319 321 323 324 323 320 319 320 324 324 322 319 315 311 306 300 300 297 291 289 289 290 291 291 287 279 275 286 303 298 277 262 267 269 255 240 262 294 306 322 327 312 77 30 20 26 37 59 56 28 26 31 29 37 44 57 73 76 72
318 319 320 323 326 328 329 329 328 327 326 326 324 321 318 314 310 308 303 297 300 302 293 286 288 289 288 288 284 274 268 276 295 298 278 265 273 272 258 248 260 282 306 326 327 169 96 42 39 40 42 51 61 49 36 33 35 36 45 71 82 88 88
328 329 329 329 329 328 328 329 330 330 327 325 322 319 318 316 313 311 306 302 303 305 299 292 291 290 290 292 287 272 264 273 290 294 273 264 274 270 256 246 251 259 294 327 5 127 356 25 54 45 44 47 51 52 42 36 44 44 42 61 83 98 96
322 322 321 320 319 316 315 318 320 320 319 318 318 318 320 320 320 320 317 312 309 308 305 301 297 294 293 290 283 272 269 279 290 286 267 266 275 267 248 233 233 228 239 283 269 281 299 281 45 38 40 40 34 39 41 40 60 61 47 48 77 97 94
303 310 316 320 319 314 311 311 310 311 314 313 311 312 313 313 316 321 323 322 318 316 315 310 305 299 291 283 278 276 276 284 289 281 269 272 277 267 241 226 232 226 213 243 250 257 277 244 182 23 16 18 23 32 38 49 92 93 68 63 81 95 95
304 313 319 321 318 314 312 312 313 313 314 314 312 312 311 312 314 318 323 324 322 323 324 320 316 305 291 282 282 280 275 281 288 276 269 270 270 263 241 230 237 233 216 222 229 233 246 224 205 323 337 357 19 31 36 51 99 112 88 83 93 98 97
308 313 317 317 316 317 316 316 318 318 320 320 318 317 317 317 317 317 318 320 318 322 326 324 322 315 300 292 292 284 272 275 290 276 271 272 266 258 240 230 236 236 225 219 215 220 234 229 224 241 266 5 30 39 40 47 80 108 102 97 100 100 99
306 311 317 319 320 321 321 323 325 326 329 330 328 331 335 332 329 324 319 318 319 325 330 326 321 318 311 306 301 288 272 264 279 274 273 273 264 254 238 229 234 233 221 213 209 217 236 237 221 213 195 74 46 52 49 50 85 111 115 105 96 95 98
311 317 322 324 325 326 328 330 331 330 332 334 337 346 350 347 342 336 329 326 325 328 334 333 327 322 318 312 303 290 274 262 269 264 263 265 257 244 231 227 229 226 222 227 222 217 238 252 232 209 182 129 79 64 61 78 109 115 116 102 96 103 107
322 326 328 328 329 331 332 331 330 330 331 332 337 340 339 337 337 338 336 331 326 327 333 337 338 336 328 316 305 293 274 259 262 255 251 255 248 231 224 225 226 226 233 241 230 219 240 252 228 203 182 152 122 87 82 108 125 125 119 105 105 115 116
325 327 331 333 333 333 331 329 330 330 328 328 335 337 333 329 327 327 328 325 321 322 327 333 337 339 334 321 311 301 278 252 248 248 245 245 237 224 222 225 229 233 239 236 222 221 240 234 207 198 188 160 142 116 108 127 137 140 134 119 115 120 123
323 327 333 335 333 330 329 329 330 328 322 321 327 329 329 330 330 328 327 326 321 313 312 322 333 339 339 329 320 312 289 258 241 245 246 241 229 220 219 222 227 226 221 218 215 222 234 216 201 201 190 165 161 147 137 148 150 152 151 131 121 120 121
325 330 332 330 329 330 331 332 332 330 325 323 325 325 326 329 331 330 330 331 324 310 310 330 343 341 340 333 328 322 303 275 251 241 243 239 227 220 218 218 217 207 199 215 224 227 231 213 201 204 198 174 174 170 157 168 170 164 162 147 130 123 120
327 330 330 329 329 333 337 337 336 336 333 330 327 326 325 325 324 323 323 324 322 316 320 335 340 329 333 335 330 328 319 301 274 244 236 234 225 221 221 217 208 195 198 219 227 226 226 210 194 202 204 173 170 178 178 213 221 179 168 159 144 132 129
330 334 337 337 338 341 341 336 334 334 333 330 328 325 323 320 318 316 313 311 313 317 320 327 332 322 325 335 332 328 330 323 288 249 235 231 223 219 221 215 201 191 202 221 222 213 210 201 189 193 189 167 167 182 186 177 173 164 160 156 145 133 128
345 351 355 351 342 338 335 332 330 329 328 326 325 322 319 317 314 311 307 305 309 316 317 316 319 316 323 334 336 331 332 327 286 249 233 229 226 220 213 202 192 196 211 219 212 200 195 192 189 187 174 161 166 182 184 168 159 149 141 138 137 131 123
13 13 1 349 342 337 331 327 326 327 328 327 325 323 321 319 316 313 309 306 307 311 313 303 286 292 315 329 334 333 332 321 281 246 228 220 216 214 213 204 196 206 214 204 196 203 197 189 190 190 175 161 168 184 183 177 177 158 144 136 136 134 128